Chicago Midway International Airport Chicago US
ICAO: KMDW
IATA: MDW
Category: Large
Scheduled Services: Yes

Elevation: 620 ft
TransAlt. 18000 ft.

Airport Communications:
APP/DEP:118.4
ASOS:132.75
ATIS:132.75
CLNC DEL:121.85
GND:121.65
TWR:118.7
UNICOM:122.95

KMDW Zoom In..

Runways:

(A) RW 04L length 5507 ft width 150 ft
---- / hdg 44

(B) RW 04R length 6445 ft width 150 ft
ILS 111.50 / hdg 44

(C) RW 13C length 6522 ft width 150 ft
ILS 109.90 / hdg 135

(D) RW 13L length 5141 ft width 150 ft
---- / hdg 135

(E) RW 13R length 3859 ft width 60 ft
---- / hdg 135

(F) RW 22L length 6445 ft width 150 ft
---- / hdg 224

(G) RW 22R length 5507 ft width 150 ft
---- / hdg 224

(H) RW 31C length 6522 ft width 150 ft
ILS 109.90 / hdg 315

(I) RW 31L length 3859 ft width 60 ft
---- / hdg 315

(J) RW 31R length 5141 ft width 150 ft
---- / hdg 315

Location; KMDW
Day. 19 / Time. 20.53 Zulu
* Altimeter: 29.90
* Temperature: 31° c. 87.8°f.
* Wind from: 170° Speed 13 kn.
Dewpoint: 14° c.
Visibility: 10 Statute Miles.
Clouds: Few 6000 ft.
Clouds: Broken 1000 ft.
Clouds: Broken 15000 ft.
Clouds: Broken 2000 ft.

KMDW 192053Z 17013KT 10SM FEW060 BKN100 BKN150 BKN200 31/14 A2990 RMK AO2 SLP113 T03060139 56013


Wind From 170°
Speed 13 kn.

 
 
jpsmedia.com for Web Design worldairports.se 2018   terms of use